Weather History for KPTK - July, 2012

Change the Weather History Date:

Friday, July 20, 2012

  Actual Average Record
Temperature  
Mean Temperature 70 °F -  
Max Temperature 79 °F 80 °F 93 °F (2011)
Min Temperature 63 °F 59 °F 50 °F (2000)
Cooling Degree Days 6    
Growing Degree Days 20 (Base 50)    
Moisture  
Dew Point 54 °F    
Average Humidity 60    
Maximum Humidity 87    
Minimum Humidity 37    
Precipitation  
Precipitation 0.01 in - - ()
Sea Level Pressure  
Sea Level Pressure 30.04 in    
Wind  
Wind Speed 8 mph (NE)    
Max Wind Speed 15 mph    
Max Gust Speed 20 mph    
Visibility 10 miles    
Events      
Averages and records for this station are not official NWS values.
T = Trace of Precipitation, MM = Missing Value Source: NWS Daily Summary

Daily Weather History Graph

Daily Weather History Graph

Search for Another Location

Airport or City:

Trip Planner

Search our weather history database for the weather conditions in past years. The results will help you decide how hot, cold, wet, or windy it might be!

Date:

Astronomy

Jul. 20, 2012 Rise Set
Actual Time 6:14 AM EDT 9:05 PM EDT
Civil Twilight 5:40 AM EDT 9:38 PM EDT
Nautical Twilight 4:58 AM EDT 10:20 PM EDT
Astronomical Twilight 4:09 AM EDT 11:09 PM EDT
Moon 7:53 AM EDT (7/20) 9:40 PM EDT (7/20)
Length of Visible Light 15h 57m
Length of Day
14h 51m
New Moon, 2% of the Moon is Illuminated
Jul 20
New Moon
Jul 26
First Quarter
Aug 1
Full
Aug 9
Last Quarter
Aug 17
New

Hourly Weather History & Observations

Time (EDT) Temp. Dew Point Humidity Pressure Visibility Wind Dir Wind Speed Gust Speed Precip Events Conditions
12:53 AM 66.0 °F 62.1 °F 87% 29.99 in 9.0 mi ENE 9.2 mph - N/A   Overcast
1:53 AM 64.9 °F 60.1 °F 84% 30.00 in 10.0 mi NE 8.1 mph - N/A   Overcast
2:53 AM 64.0 °F 57.9 °F 80% 30.00 in 10.0 mi NE 6.9 mph - N/A   Mostly Cloudy
3:53 AM 64.0 °F 55.9 °F 75% 29.99 in 10.0 mi East 8.1 mph - N/A   Overcast
4:53 AM 63.0 °F 57.0 °F 81% 30.00 in 10.0 mi ENE 4.6 mph - N/A   Overcast
5:53 AM 63.0 °F 57.9 °F 84% 30.02 in 10.0 mi North 3.5 mph - N/A   Mostly Cloudy
6:53 AM 63.0 °F 57.9 °F 84% 30.02 in 10.0 mi ENE 4.6 mph - N/A   Mostly Cloudy
7:53 AM 64.9 °F 57.0 °F 75% 30.03 in 10.0 mi East 5.8 mph - N/A   Mostly Cloudy
8:53 AM 68.0 °F 55.0 °F 63% 30.05 in 10.0 mi ENE 11.5 mph 19.6 mph 0.01 in   Scattered Clouds
9:53 AM 66.9 °F 55.0 °F 66% 30.06 in 10.0 mi ENE 10.4 mph - N/A   Mostly Cloudy
10:53 AM 72.0 °F 55.9 °F 57% 30.06 in 10.0 mi East 11.5 mph 18.4 mph N/A   Mostly Cloudy
11:53 AM 73.9 °F 54.0 °F 50% 30.07 in 10.0 mi NE 12.7 mph 18.4 mph N/A   Mostly Cloudy
12:53 PM 75.0 °F 54.0 °F 48% 30.06 in 10.0 mi NE 11.5 mph - N/A   Mostly Cloudy
1:53 PM 77.0 °F 53.1 °F 43% 30.06 in 10.0 mi NE 15.0 mph 18.4 mph N/A   Mostly Cloudy
2:53 PM 78.1 °F 51.1 °F 39% 30.05 in 10.0 mi NNE 15.0 mph 18.4 mph N/A   Scattered Clouds
3:53 PM 77.0 °F 52.0 °F 42% 30.05 in 10.0 mi NE 4.6 mph - N/A   Scattered Clouds
4:53 PM 78.1 °F 51.1 °F 39% 30.04 in 10.0 mi NNE 10.4 mph - N/A   Scattered Clouds
5:53 PM 78.1 °F 51.1 °F 39% 30.04 in 10.0 mi Variable 5.8 mph - N/A   Partly Cloudy
6:53 PM 78.1 °F 50.0 °F 37% 30.04 in 10.0 mi NE 10.4 mph - N/A   Partly Cloudy
7:53 PM 75.9 °F 50.0 °F 40% 30.04 in 10.0 mi NE 9.2 mph - N/A   Partly Cloudy
8:53 PM 72.0 °F 51.1 °F 48% 30.05 in 10.0 mi NE 4.6 mph - N/A   Partly Cloudy
9:53 PM 70.0 °F 51.1 °F 51% 30.06 in 10.0 mi Calm Calm - N/A   Partly Cloudy
10:53 PM 66.0 °F 53.1 °F 63% 30.06 in 10.0 mi Calm Calm - N/A   Partly Cloudy
11:53 PM 64.9 °F 54.0 °F 68% 30.06 in 10.0 mi ENE 3.5 mph - N/A   Partly Cloudy